Flag for Mozambique Weather past 2 weeks in Maputo, Mozambique

Now
79 °F

Partly sunny.


Feels Like: 82 °F
Forecast: 73 / 89 °F
Wind: 12 mph from South

Location: Maputo / Mavalane

Current Time: Jan 30, 2015 at 9:07:49 AM

Latest Report: Jan 30, 2015 at 8:00 AM


Visibility: N/A

Pressure: 30.01 "Hg

Humidity: 79%

Dew point: 72 °F

Location of MaputoLocation

Historic Weather in Maputo — Graph

°F

Maputo temperature yesterday

Maximum temperature yesterday: 86 °F (at 1:00 PM)
Minimum temperature yesterday: 75 °F (at 5:00 AM)
Average temperature yesterday: 80 °F

Past Weeks' High & Low Weather Summary

 TemperatureHumidityPressure
High95 °F (Jan 27, 11:00 AM)100% (Jan 15, 7:00 AM)30.18 "Hg (Jan 15, 7:00 AM)
Low64 °F (Jan 17, 6:00 AM)43% (Jan 25, 12:00 PM)29.59 "Hg (Jan 16, 5:00 PM)
Average79 °F72%29.94 "Hg
* Reported Jan 15 7:00 AM — Jan 30 7:00 AM, Maputo, Weather by CustomWeather, © 2014

Note: Actual official high and low records may vary slightly from our data, if they occured in-between our weather recording intervals... More about our weather records

Advertising

Maputo weather history for previous 24 hours

 ConditionsComfort  
Time TempWeatherWind HumidityBarometerVisibility
7:00 AM
Jan 30
75 °FScattered clouds.13 mph83%29.98 "HgN/A
6:00 AM73 °FScattered clouds.14 mph89%29.98 "HgN/A
5:00 AM73 °FPartly sunny.13 mph89%29.98 "HgN/A
4:00 AM73 °FPassing clouds.15 mph89%29.98 "HgN/A
11:00 PM
Jan 29
77 °FPassing clouds.12 mph79%30.01 "HgN/A
10:00 PM77 °FPassing clouds.12 mph79%30.01 "HgN/A
8:00 PM79 °FPassing clouds.10 mph74%29.98 "HgN/A
7:00 PM79 °FPassing clouds.13 mph74%29.95 "HgN/A
6:00 PM81 °FPassing clouds.15 mph70%29.95 "HgN/A
5:00 PM81 °FPartly sunny.13 mph70%29.92 "HgN/A
4:00 PM82 °FPartly sunny.9 mph66%29.92 "HgN/A
3:00 PM84 °FBroken clouds.9 mph62%29.92 "HgN/A
2:00 PM82 °FBroken clouds.8 mph62%29.95 "HgN/A
1:00 PM86 °FPartly sunny.12 mph55%29.95 "HgN/A
12:00 PM84 °FPartly sunny.14 mph55%29.98 "HgN/A
11:00 AM81 °FPartly sunny.13 mph58%29.98 "HgN/A
10:00 AM84 °FPartly sunny.7 mph79%29.83 "HgN/A
9:00 AM81 °FPartly sunny.17 mph66%29.98 "HgN/A
Weather by CustomWeather, © 2014

See weather overviewHow to use our weather pages